Погода в Алачаты

Турция     38°17′12″N   26°22′32″E
темп.,
°C
ветер,
м/с
пор.,
м/с
влажн.,
%
обл.,
%
осадки,
мм/ч
давл.,
гПа
погр.,
м
18 апреля, вс
вс1800:00+17ю61573100 0.1 1012483
03:00+16вюв2283100 0.3 101119
06:00+18юв51564100 0.0 1011378
09:00+19ю51267100 0.0 1012495
12:00+19ю41460100 0.0 1013555
15:00+18вюв1373100 0.1 1014167
18:00+18ююв4667100 0.1 1014143
21:00+17всв3374100 0.8 101534
19 апреля, пн
пн1900:00+17всв2276100 0.6 101423
03:00+17в3373100 1.1 101327
06:00+17в4674100 0.2 101193
09:00+16юз2486100 1.2 1013162
12:00+16ссз1281100 0.0 101395
15:00+16юз3683100 0.0 1011365
18:00+15ююз1178100 0.1 101012
21:00+14ююз69830 0.1 1011470
20 апреля, вт
вт2000:00+13ююз46840 0.6 1010113
03:00+13зюз49810 0.6 1011294
06:00+12зюз36810 0.0 1011276
09:00+15сз23660 0.0 1013616
12:00+17зюз32530 0.0 10151255
15:00+17з44535 0.0 10151359
18:00+16сз44550 0.0 1015594
21:00+12св22690 0.0 101625
21 апреля, ср
ср2100:00+11всв11660 0.0 101721
03:00+11юв11672 0.0 101737
06:00+11в11690 0.0 101723
09:00+15ююв11511 0.0 1018255
12:00+17юз334784 0.0 1019924
15:00+18зюз434828 0.0 1019851
18:00+16зюз23577 0.0 1019370
21:00+13ссв11750 0.0 102011
22 апреля, чт
чт2200:00+12ссв22690 0.0 102024
03:00+11св22680 0.0 102026
06:00+11св22720 0.0 102031
09:00+15св23580 0.0 1020299
12:00+19ссз33370 0.0 1021984
15:00+20сз43385 0.0 10211090
18:00+18ссз34445 0.0 1020439
21:00+13с22695 0.0 102137